User: anonymous   Login
Location: Sawmill Trailhead
(33.5800°N, 116.4497°W)
Time: 14:28:51
(UTC-07:00)
Language:

Uosat F - Orbit

View from above orbital plane
View from above orbital plane
View from above satellite
View from above satellite

Ground track
Ground track

The orbit data is extracted from the following two-line orbital elements,

1 21575U 91050B   17115.57982969 +.00000059 +00000-0 +32889-4 0  9993
2 21575 098.7599 130.7243 0008480 096.2665 263.9489 14.40793928353507
Epoch (UTC): 25 April 2017 13:54:57
Eccentricity: 0.0008480
inclination: 98.7599°
perigee height: 750 km
apogee height: 762 km
right ascension of ascending node: 130.7243°
argument of perigee: 96.2665°
revolutions per day: 14.40793928
mean anomaly at epoch: 263.9489°
orbit number at epoch: 35350

The dashed part of the orbit path shows where the satellite is in the earth's shadow,  

DLR